When you browse on this site, cookies collect data to enhance your experience and personalize the content and advertising you see.
Visit our Privacy Policy to learn more. By continuing to use the site, you agree to this use of cookies and data.
  • In United Kingdom
  • List of Countries
  • For 7 days
  • Water Temperature
  • Satellite Maps
  • Weather Map
  • Weather Widgets
  • user-avatar
    Login

    Hourly Weather Pylatkivtsi

    Today, 21 June, Friday

    Time Temperature Precipitation Wind Pressure Humidity
    00:00 +21°C° 0 mm 2 mps 738 mmHg 96%
    01:00 +21°C° 0 mm 2 mps 738 mmHg 98%
    02:00 +21°C° 0 mm 1 mps 738 mmHg 99%
    03:00 +20°C° 0 mm 2 mps 738 mmHg 99%
    04:00 +21°C° 0 mm 1 mps 738 mmHg 99%
    05:00 +21°C° 0 mm 1 mps 738 mmHg 100%
    06:00 +20°C° 0 mm 2 mps 738 mmHg 99%
    07:00 +23°C° 0 mm 1 mps 739 mmHg 97%
    08:00 +24°C° 0 mm 1 mps 739 mmHg 94%
    09:00 +26°C° 0 mm 2 mps 739 mmHg 92%
    10:00 +27°C° 0 mm 2 mps 740 mmHg 89%
    11:00 +28°C° 0 mm 2 mps 740 mmHg 86%
    12:00 +28°C° 0 mm 3 mps 739 mmHg 82%
    13:00 +29°C° 0 mm 3 mps 739 mmHg 80%
    14:00 +29°C° 0 mm 2 mps 738 mmHg 78%
    15:00 +29°C° 0 mm 2 mps 738 mmHg 78%
    16:00 +29°C° 0 mm 3 mps 738 mmHg 79%
    17:00 +28°C° 0.1 mm 3 mps 738 mmHg 80%
    18:00 +28°C° 0 mm 3 mps 737 mmHg 83%
    19:00 +27°C° 0 mm 3 mps 737 mmHg 89%
    20:00 +26°C° 0 mm 2 mps 738 mmHg 95%
    21:00 +25°C° 0 mm 2 mps 738 mmHg 97%
    22:00 +24°C° 0 mm 3 mps 738 mmHg 98%
    23:00 +24°C° 0 mm 2 mps 738 mmHg 99%

    Tomorrow, 22 June, Saturday

    Time Temperature Precipitation Wind Pressure Humidity
    00:00 +23°C° 0 mm 2 mps 738 mmHg 100%
    01:00 +23°C° 0 mm 1 mps 738 mmHg 100%
    02:00 +23°C° 0 mm 1 mps 738 mmHg 100%
    03:00 +23°C° 0 mm 1 mps 738 mmHg 100%
    04:00 +23°C° 0 mm 1 mps 739 mmHg 100%
    05:00 +23°C° 0 mm 1 mps 739 mmHg 100%
    06:00 +22°C° 0 mm 1 mps 739 mmHg 100%
    07:00 +20°C° 0 mm 0 mps 739 mmHg 100%
    08:00 +21°C° 0 mm 0 mps 739 mmHg 100%
    09:00 +21°C° 0 mm 0 mps 740 mmHg 97%
    10:00 +23°C° 0 mm 1 mps 740 mmHg 97%
    11:00 +23°C° 0 mm 2 mps 740 mmHg 97%
    12:00 +24°C° 0 mm 1 mps 740 mmHg 96%
    13:00 +26°C° 0 mm 1 mps 739 mmHg 89%
    14:00 +27°C° 0 mm 3 mps 739 mmHg 87%
    15:00 +28°C° 0 mm 2 mps 739 mmHg 84%
    16:00 +28°C° 0.1 mm 3 mps 738 mmHg 83%
    17:00 +28°C° 0 mm 2 mps 738 mmHg 82%
    18:00 +27°C° 1.3 mm 2 mps 738 mmHg 86%
    19:00 +27°C° 0 mm 3 mps 739 mmHg 90%
    20:00 +26°C° 0 mm 3 mps 739 mmHg 94%
    21:00 +25°C° 0 mm 1 mps 739 mmHg 97%
    22:00 +22°C° 0 mm 4 mps 739 mmHg 95%
    23:00 +20°C° 2.2 mm 7 mps 740 mmHg 98%

    Day after tomorrow, 23 June, Sunday

    Time Temperature Precipitation Wind Pressure Humidity
    00:00 +20°C° 3.2 mm 3 mps 739 mmHg 95%
    01:00 +20°C° 0 mm 3 mps 738 mmHg 99%
    02:00 +21°C° 0 mm 1 mps 739 mmHg 100%
    03:00 +20°C° 0 mm 2 mps 739 mmHg 100%
    04:00 +21°C° 0 mm 1 mps 739 mmHg 98%
    05:00 +21°C° 0 mm 1 mps 739 mmHg 98%
    06:00 +21°C° 0 mm 1 mps 739 mmHg 98%
    07:00 +22°C° 0 mm 1 mps 740 mmHg 98%
    08:00 +23°C° 0 mm 2 mps 739 mmHg 98%
    09:00 +24°C° 0 mm 3 mps 740 mmHg 97%
    10:00 +22°C° 0 mm 4 mps 740 mmHg 97%
    11:00 +23°C° 0 mm 4 mps 740 mmHg 96%
    12:00 +25°C° 0 mm 4 mps 739 mmHg 95%
    13:00 +26°C° 0 mm 5 mps 739 mmHg 93%
    14:00 +27°C° 0 mm 5 mps 739 mmHg 90%
    15:00 +28°C° 0 mm 5 mps 739 mmHg 88%
    16:00 +28°C° 0 mm 5 mps 739 mmHg 84%
    17:00 +28°C° 0 mm 5 mps 738 mmHg 82%
    18:00 +28°C° 0 mm 5 mps 739 mmHg 84%
    19:00 +27°C° 0 mm 4 mps 739 mmHg 87%
    20:00 +26°C° 0 mm 4 mps 739 mmHg 92%
    21:00 +25°C° 0 mm 3 mps 739 mmHg 95%
    22:00 +23°C° 0 mm 4 mps 739 mmHg 98%
    23:00 +23°C° 0 mm 4 mps 739 mmHg 99%

    24 June, Monday

    Time Temperature Precipitation Wind Pressure Humidity
    00:00 +22°C° 0 mm 3 mps 740 mmHg 99%
    01:00 +22°C° 0 mm 3 mps 740 mmHg 100%
    02:00 +23°C° 0 mm 2 mps 740 mmHg 100%
    03:00 +23°C° 0 mm 2 mps 740 mmHg 100%
    04:00 +21°C° 0 mm 2 mps 740 mmHg 100%
    05:00 +21°C° 0 mm 2 mps 741 mmHg 100%
    06:00 +22°C° 0 mm 3 mps 741 mmHg 100%
    07:00 +23°C° 0 mm 2 mps 741 mmHg 100%
    08:00 +21°C° 0 mm 3 mps 741 mmHg 100%
    09:00 +23°C° 0 mm 2 mps 742 mmHg 98%
    10:00 +24°C° 0 mm 3 mps 742 mmHg 97%
    11:00 +24°C° 0 mm 3 mps 742 mmHg 97%
    12:00 +25°C° 0 mm 3 mps 743 mmHg 95%
    13:00 +26°C° 0 mm 3 mps 742 mmHg 93%
    14:00 +26°C° 0 mm 3 mps 742 mmHg 91%

    25 June, Tuesday

    Time Temperature Precipitation Wind Pressure Humidity

    26 June, Wednesday

    Time Temperature Precipitation Wind Pressure Humidity
    Show more